Location: Antichan
(42.9728°N, 0.6667°E)
Time: 18:20:18
(UTC+00:00)

Cosmos 1725 Rocket - Pass Details

Date: 15 August 2020
Orbit: 961 x 991 km, 82.9° (Epoch: 19 September)

Event Time Altitude Azimuth Distance (km) Brightness Sun altitude
Exits shadow 21:55:18 64° 125° (SE) 1,091 3.9 -26.4°
Maximum altitude 21:55:52 68° 94° (E) 1,066 4.0 -26.4°
Drops below altitude 10° 22:02:09 10° 13° (NNE) 2,763 6.9 -27.1°
Sets 22:04:42 0° 11° (N) 3,715 7.7 -27.3°
